Date String (YYYY-MM-DD hh:mm:ss) UTC,Instrument flags,absolute air pressure of the measurement (hPa),sample flow rate (lpm),inlet stack bypass flow (lpm),air temperature of the measurement (°C),ambient temperature measured by the external sensor (°C),aerosol sample conditioner tube jacket temperature (°C),OPC LED temperature (°C),internal box temperature (°C),relative humidity of the measurement (%),span deviation,mass concentration of particles derived from Lorenz-Mie calculation of OPC scattering (μg/m³),mass concentration of particles derived from Lorenz-Mie calculation of OPC scattering (μg/m³),mass concentration of particles derived from Lorenz-Mie calculation of OPC scattering (μg/m³)
DateTimeUTC,F1_M11,P_M11,Q1_M11,Q2_M11,T1_M11,T2_M11,T3_M11,T4_M11,T5_M11,U1_M11,ZSPAN_M11,X2_M11,X0_M11,X1_M11
2024-02-04 09:00:00,SystemResetWarning,0821.7,5.00,000.00,018.3,017.6,000.0,026.8,020.0,23.4,0000.0,0001.49,0001.93,0001.35
2024-02-04 09:01:00,SystemResetWarning,0821.7,4.99,000.00,018.3,017.6,000.0,026.8,020.0,23.3,0000.0,0001.46,0001.89,0001.33
2024-02-04 09:02:00,SystemResetWarning,0821.7,5.00,000.00,018.3,017.5,000.0,026.8,020.0,23.1,0000.0,0001.42,0001.82,0001.32
2024-02-04 09:03:00,SystemResetWarning,0821.8,5.00,000.00,018.3,017.5,000.0,026.8,020.0,23.0,0000.0,0001.40,0001.79,0001.30
2024-02-04 09:04:00,SystemResetWarning,0821.7,5.00,000.00,018.3,017.5,000.0,026.8,020.0,22.9,0000.0,0001.41,0001.82,0001.30
2024-02-04 09:05:00,SystemResetWarning,0821.8,5.00,000.00,018.3,017.5,000.0,026.8,020.0,23.0,0000.0,0001.41,0001.82,0001.29
2024-02-04 09:06:00,SystemResetWarning,0821.8,5.00,000.00,018.3,017.5,000.0,026.8,020.0,23.0,0000.0,0001.39,0001.82,0001.27
2024-02-04 09:07:00,SystemResetWarning,0821.9,4.98,000.00,018.3,017.5,000.0,026.8,020.0,23.0,0000.0,0001.38,0001.80,0001.25
2024-02-04 09:08:00,SystemResetWarning,0821.9,5.00,000.00,018.3,017.5,000.0,026.8,020.0,23.0,0000.0,0001.37,0001.89,0001.24
2024-02-04 09:09:00,SystemResetWarning,0821.9,5.01,000.00,018.3,017.5,000.0,026.8,020.0,23.0,0000.0,0001.35,0001.96,0001.23
2024-02-04 09:10:00,SystemResetWarning,0821.9,5.01,000.00,018.3,017.5,000.0,026.8,020.0,23.0,0000.0,0001.34,0001.93,0001.22
2024-02-04 09:11:00,SystemResetWarning,0821.8,4.99,000.00,018.3,017.5,000.0,026.8,020.0,22.8,0000.0,0001.32,0001.87,0001.22
2024-02-04 09:12:00,SystemResetWarning,0821.8,4.99,000.00,018.3,017.5,000.0,026.8,020.0,22.7,0000.0,0001.31,0001.85,0001.22
2024-02-04 09:13:00,SystemResetWarning,0821.8,5.01,000.00,018.3,017.5,000.0,026.9,020.0,22.6,0000.0,0001.29,0001.83,0001.21
2024-02-04 09:14:00,SystemResetWarning,0821.8,5.00,000.00,018.3,017.5,000.0,026.9,020.0,22.5,0000.0,0001.29,0001.84,0001.20
2024-02-04 09:15:00,SystemResetWarning,0821.9,5.00,000.00,018.3,017.5,000.0,026.9,020.0,22.4,0000.0,0001.27,0001.80,0001.18
2024-02-04 09:16:00,SystemResetWarning,0821.9,4.98,000.00,018.3,017.5,000.0,026.9,020.0,22.3,0000.0,0001.25,0001.78,0001.16
2024-02-04 09:17:00,SystemResetWarning,0821.9,4.99,000.00,018.3,017.5,000.0,026.9,020.0,22.3,0000.0,0001.23,0001.73,0001.15
2024-02-04 09:18:00,SystemResetWarning,0821.9,5.00,000.00,018.3,017.5,000.0,026.9,020.0,22.2,0000.0,0001.21,0001.69,0001.14
2024-02-04 09:19:00,SystemResetWarning,0822.0,5.02,000.00,018.3,017.9,000.0,027.0,020.2,22.2,0000.0,0001.20,0001.62,0001.13
2024-02-04 09:20:00,SystemResetWarning,0822.1,5.00,000.00,018.5,018.6,000.0,027.0,020.7,21.5,0000.0,0001.17,0001.41,0001.12
2024-02-04 09:21:00,SystemResetWarning,0822.0,4.99,000.00,018.6,018.8,000.0,027.0,020.7,21.1,0000.0,0001.16,0001.41,0001.11
2024-02-04 09:22:00,SystemResetWarning,0822.0,4.99,000.00,018.7,018.7,000.0,026.9,020.5,21.5,0000.0,0001.13,0001.37,0001.08
2024-02-04 09:23:00,SystemResetWarning,0822.0,5.01,000.00,018.6,018.6,000.0,026.9,020.4,22.2,0000.0,0001.10,0001.33,0001.05
2024-02-04 09:24:00,SystemResetWarning,0822.0,5.01,000.00,018.6,018.5,000.0,026.8,020.3,22.8,0000.0,0001.14,0001.41,0001.06
2024-02-04 09:25:00,SystemResetWarning,0822.0,5.01,000.00,018.6,018.4,000.0,026.8,020.3,23.1,0000.0,0001.18,0002.23,0001.07
2024-02-04 09:26:00,SystemResetWarning,0822.0,4.99,000.00,018.6,018.3,000.0,026.8,020.3,23.6,0000.0,0001.27,0003.18,0001.13
2024-02-04 09:27:00,SystemResetWarning,0821.9,5.00,000.00,018.6,018.3,000.0,026.8,020.2,23.9,0000.0,0001.43,0004.11,0001.21
2024-02-04 09:28:00,SystemResetWarning,0821.9,5.00,000.00,018.6,018.2,000.0,026.8,020.2,23.8,0000.0,0001.61,0004.91,0001.32
2024-02-04 09:29:00,SystemResetWarning,0821.9,4.99,000.00,018.6,018.2,000.0,026.9,020.2,23.9,0000.0,0001.99,0007.04,0001.44
2024-02-04 09:30:00,SystemResetWarning,0822.0,5.00,000.00,018.6,018.1,000.0,026.9,020.2,24.8,0000.0,0002.45,0008.58,0001.57
2024-02-04 09:31:00,SystemResetWarning,0821.9,5.01,000.00,018.6,018.1,000.0,026.9,020.2,25.7,0000.0,0002.76,0009.39,0001.68
2024-02-04 09:32:00,SystemResetWarning,0822.0,5.00,000.00,018.5,018.1,000.0,026.9,020.2,24.9,0000.0,0002.99,0009.65,0001.78
2024-02-04 09:33:00,SystemResetWarning,0821.9,5.00,000.00,018.5,018.0,000.0,026.9,020.1,24.5,0000.0,0003.11,0009.74,0001.91
2024-02-04 09:34:00,SystemResetWarning,0822.0,5.00,000.00,018.5,018.0,000.0,026.9,020.1,24.4,0000.0,0003.20,0009.82,0002.08
2024-02-04 09:35:00,SystemResetWarning,0822.0,5.00,000.00,018.5,018.0,000.0,026.9,020.1,24.4,0000.0,0003.31,0009.92,0002.30
2024-02-04 09:36:00,SystemResetWarning,0822.0,5.01,000.00,018.5,017.9,000.0,026.9,020.1,24.4,0000.0,0003.37,0009.71,0002.41
2024-02-04 09:37:00,SystemResetWarning,0822.0,5.00,000.00,018.5,017.9,000.0,026.9,020.1,24.3,0000.0,0003.39,0009.25,0002.41
2024-02-04 09:38:00,SystemResetWarning,0822.1,5.00,000.00,018.5,017.9,000.0,026.8,020.1,24.2,0000.0,0003.36,0008.88,0002.40
2024-02-04 09:39:00,SystemResetWarning,0822.1,5.00,000.00,018.4,017.9,000.0,026.8,020.1,24.3,0000.0,0003.32,0008.45,0002.35
2024-02-04 09:40:00,SystemResetWarning,0822.1,5.00,000.00,018.4,017.9,000.0,026.8,020.1,24.4,0000.0,0003.15,0007.63,0002.26
2024-02-04 09:41:00,SystemResetWarning,0822.1,5.00,000.00,018.4,017.8,000.0,026.8,020.1,24.4,0000.0,0002.82,0006.39,0002.15
2024-02-04 09:42:00,SystemResetWarning,0822.1,4.99,000.00,018.4,017.8,000.0,026.8,020.0,24.4,0000.0,0002.53,0004.65,0002.05
2024-02-04 09:43:00,SystemResetWarning,0822.1,5.00,000.00,018.4,017.8,000.0,026.8,020.0,24.4,0000.0,0002.38,0004.32,0001.99
2024-02-04 09:44:00,SystemResetWarning,0822.1,5.00,000.00,018.4,017.8,000.0,026.8,020.0,24.6,0000.0,0002.35,0004.48,0001.92
2024-02-04 09:45:00,SystemResetWarning,0822.1,5.00,000.00,018.4,017.8,000.0,026.8,020.0,24.4,0000.0,0002.31,0004.53,0001.83
2024-02-04 09:46:00,SystemResetWarning,0822.1,5.00,000.00,018.4,017.8,000.0,026.8,020.0,24.4,0000.0,0002.21,0004.71,0001.65
2024-02-04 09:47:00,SystemResetWarning,0822.1,5.01,000.00,018.4,017.8,000.0,026.8,020.0,24.4,0000.0,0002.15,0005.83,0001.51
2024-02-04 09:48:00,SystemResetWarning,0822.2,5.00,000.00,018.4,017.8,000.0,026.8,020.0,24.3,0000.0,0002.11,0007.14,0001.48
2024-02-04 09:49:00,SystemResetWarning,0822.2,5.01,000.00,018.4,017.8,000.0,026.8,020.0,24.2,0000.0,0002.12,0007.42,0001.44
2024-02-04 09:50:00,SystemResetWarning,0822.2,5.00,000.00,018.4,017.8,000.0,026.8,020.0,24.2,0000.0,0002.24,0008.21,0001.40
2024-02-04 09:51:00,SystemResetWarning,0822.3,4.99,000.00,018.4,017.9,000.0,026.8,020.0,24.2,0000.0,0002.28,0008.16,0001.37
2024-02-04 09:52:00,SystemResetWarning,0822.3,4.99,000.00,018.4,017.9,000.0,026.8,020.0,24.2,0000.0,0002.30,0007.80,0001.37
2024-02-04 09:53:00,SystemResetWarning,0822.2,5.01,000.00,018.4,017.8,000.0,026.7,020.0,24.2,0000.0,0002.29,0007.91,0001.36
2024-02-04 09:54:00,SystemResetWarning,0822.3,5.00,000.00,018.4,017.8,000.0,026.7,020.0,24.1,0000.0,0002.28,0008.31,0001.32
2024-02-04 09:55:00,SystemResetWarning,0822.3,5.00,000.00,018.4,017.8,000.0,026.7,020.0,24.1,0000.0,0002.28,0008.49,0001.28
2024-02-04 09:56:00,SystemResetWarning,0822.4,5.00,000.00,018.4,017.8,000.0,026.7,020.0,24.0,0000.0,0002.23,0009.44,0001.23
2024-02-04 09:57:00,SystemResetWarning,0822.4,4.99,000.00,018.4,017.8,000.0,026.8,020.0,23.9,0000.0,0002.17,0009.46,0001.20
2024-02-04 09:58:00,SystemResetWarning,0822.4,5.01,000.00,018.4,017.8,000.0,026.8,020.0,23.9,0000.0,0002.07,0008.88,0001.17
2024-02-04 09:59:00,SystemResetWarning,0822.4,5.00,000.00,018.4,017.8,000.0,026.8,020.0,24.0,0000.0,0002.06,0008.39,0001.14
